Home > Weather > Villeurbanne > Past weeks

Flag for France Past Weather in Villeurbanne, Rhône-Alpes, France — Yesterday and Last 2 Weeks

Now
68 °F

Passing clouds.


Feels Like: 68 °F
Forecast: 70 / 94 °F
Wind: 3 mph from South

Location: Lyon / Bron

Current Time: Aug 27, 2016 at 7:05:21 AM

Latest Report: Aug 27, 2016 at 6:30 AM


Visibility: N/A

Pressure: 30.07 "Hg

Humidity: 69%

Dew Point: 57 °F

Location of VilleurbanneLocation

Past Weather in Villeurbanne — Graph

°F

Villeurbanne Temperature Yesterday

Maximum temperature yesterday: 95 °F (at 4:30 PM)
Minimum temperature yesterday: 66 °F (at 6:00 AM)
Average temperature yesterday: 81 °F

High & Low Weather Summary for the Past Weeks

 TemperatureHumidityPressure
High95 °F (Aug 26, 4:30 PM)100% (Aug 19, 7:30 AM)30.36 "Hg (Aug 19, 7:30 AM)
Low54 °F (Aug 12, 6:00 AM)21% (Aug 15, 3:00 PM)29.83 "Hg (Aug 17, 5:00 PM)
Average74 °F59%30.08 "Hg
* Reported Aug 12 6:00 AM — Aug 27 6:00 AM, Villeurbanne, Weather by CustomWeather, © 2016

Note: Actual official high and low records may vary slightly from our data, if they occured in-between our weather recording intervals... More about our weather records

Advertising

Villeurbanne Weather History for the Previous 24 Hours

Scroll right to see more
 ConditionsComfort  
Time TempWeatherWind HumidityBarometerVisibility
6:00 AM
Sat, Aug 27
70 °FClear.5 mph69%30.07 "Hg10 mi
5:30 AM70 °FClear.3 mph64%30.07 "Hg10 mi
5:00 AM70 °FClear.2 mph64%30.07 "Hg10 mi
4:30 AM70 °FClear.2 mph64%30.07 "Hg10 mi
4:00 AM70 °FClear.1 mph69%30.04 "Hg10 mi
3:30 AM70 °FClear.2 mph73%30.04 "Hg10 mi
3:00 AM72 °FClear.1 mph65%30.04 "Hg10 mi
2:30 AM72 °FClear.No wind65%30.07 "Hg10 mi
2:00 AM72 °FClear.No wind65%30.04 "Hg10 mi
1:30 AM73 °FClear.No wind61%30.04 "Hg10 mi
1:00 AM75 °FClear.No wind57%30.04 "Hg10 mi
12:30 AM75 °FClear.No wind57%30.04 "Hg10 mi
12:00 AM79 °FClear.3 mph51%30.04 "Hg10 mi
11:30 PM
Fri, Aug 26
79 °FClear.6 mph51%30.04 "Hg10 mi
11:00 PM79 °FClear.3 mph54%30.04 "Hg10 mi
10:30 PM81 °FClear.3 mph51%30.04 "Hg10 mi
10:00 PM81 °FClear.2 mph51%30.04 "Hg10 mi
9:30 PM82 °FClear.3 mph45%30.04 "Hg10 mi
9:00 PM84 °FSunny.5 mph43%30.01 "Hg10 mi
8:30 PM88 °FSunny.3 mph38%30.01 "Hg10 mi
8:00 PM90 °FSunny.2 mph33%30.01 "Hg10 mi
7:30 PM93 °FSunny.3 mph30%30.01 "Hg10 mi
7:00 PM93 °FPassing clouds.5 mph30%30.01 "HgN/A
6:30 PM93 °FSunny.2 mph30%30.01 "Hg10 mi
6:00 PM95 °FPassing clouds.5 mph30%30.01 "HgN/A
5:30 PM93 °FPassing clouds.5 mph28%30.01 "HgN/A
5:00 PM93 °FClear.5 mph28%30.01 "HgN/A
4:30 PM95 °FPassing clouds.5 mph28%30.01 "HgN/A
4:00 PM93 °FPassing clouds.6 mph30%30.04 "HgN/A
3:30 PM93 °FPassing clouds.5 mph30%30.04 "HgN/A
3:00 PM91 °FPassing clouds.7 mph32%30.04 "HgN/A
2:30 PM91 °FPassing clouds.7 mph32%30.04 "HgN/A
2:00 PM90 °FPassing clouds.8 mph33%30.04 "HgN/A
1:30 PM88 °FPassing clouds.6 mph38%30.07 "HgN/A
1:00 PM88 °FPassing clouds.7 mph38%30.07 "HgN/A
12:30 PM86 °FPassing clouds.8 mph40%30.07 "HgN/A
12:00 PM84 °FPassing clouds.8 mph43%30.07 "HgN/A
11:30 AM82 °FPassing clouds.8 mph42%30.07 "HgN/A
11:00 AM81 °FSunny.10 mph48%30.09 "Hg10 mi
10:30 AM79 °FSunny.8 mph48%30.07 "Hg10 mi
10:00 AM77 °FPassing clouds.6 mph47%30.07 "HgN/A
9:30 AM77 °FPassing clouds.5 mph51%30.07 "HgN/A
9:00 AM75 °FSunny.6 mph54%30.07 "Hg10 mi
8:30 AM72 °FSunny.2 mph65%30.07 "Hg10 mi
8:00 AM68 °FSunny.3 mph69%30.07 "Hg10 mi
7:30 AM66 °FClear.No wind68%30.07 "Hg10 mi
7:00 AM66 °FClear.5 mph68%30.04 "Hg10 mi
Weather by CustomWeather, © 2016

See weather overviewHow to use our weather pages